Regional Weather Roundup
Issued by NWS Upton, NY

Current Version | Previous Version | Text Only | Print | Product List | Glossary On
Versions: 1 2 3 4 5 6 7 8 9 10 11 12 13 14 15 16 17 18 19 20 21 22 23 24 25 26 27 28
000
ASUS41 KOKX 182105
RWROKX

REGIONAL WEATHER ROUNDUP
NATIONAL WEATHER SERVICE NEW YORK NY
500 PM EDT FRI APR 18 2014

NOTE: "FAIR" INDICATES FEW OR NO CLOUDS BELOW 12,000 FEET WITH NO
SIGNIFICANT WEATHER AND/OR OBSTRUCTIONS TO VISIBILITY.

NYZ071-072-176-178-NJZ106-104-182200-
NEW YORK CITY METRO AREA


CITY           SKY/WX    TMP DP  RH WIND       PRES   REMARKS
CENTRAL PARK   CLOUDY    48  29  47 S3        30.39S
LAGUARDIA APRT CLOUDY    45  30  55 NE9       30.37F
KENNEDY INTL   CLOUDY    43  31  62 SW7       30.39F
NEWARK/LIBERTY CLOUDY    47  30  51 VRB3      30.37F
TETERBORO      CLOUDY    50  28  42 CALM      30.35F
$$

NYZ177-179-078>081-182200-
LONG ISLAND NEW YORK

CITY           SKY/WX    TMP DP  RH WIND       PRES   REMARKS
FARMINGDALE    CLOUDY    44  33  65 S9        30.37F
ISLIP          CLOUDY    45  33  63 S7        30.35F
SHIRLEY        CLOUDY    44  35  70 SE7       30.38F
WESTHAMPTON    CLOUDY    45  33  63 E8        30.37F
MONTAUK POINT    N/A     45  34  65 S5        30.37F
$$

NYZ052-065-067-182200-
HUDSON VALLEY

CITY           SKY/WX    TMP DP  RH WIND       PRES   REMARKS
WHITE PLAINS   CLOUDY    44  29  55 SE6       30.34F
NEWBURGH       NOT AVBL
MONTGOMERY     CLOUDY    50  24  36 S8        30.31F
POUGHKEEPSIE   CLOUDY    50  26  39 W7        30.33F
ALBANY         CLOUDY    50  23  34 S15       30.30F
$$

NJZ001-105-106-008-010-013-015-019>022-104-182200-
NEW JERSEY

CITY           SKY/WX    TMP DP  RH WIND       PRES   REMARKS
NEWARK/LIBERTY CLOUDY    47  30  51 VRB3      30.37F
TETERBORO      CLOUDY    50  28  42 CALM      30.35F
CALDWELL       CLOUDY    49  27  42 CALM      30.35F
MORRISTOWN     CLOUDY    50  28  43 SE5       30.36F
SOMERVILLE     NOT AVBL
LINDEN         FAIR      48  28  45 SE5       30.39F
SUSSEX         CLOUDY    53  25  33 S7        30.32F
ANDOVER          N/A     51  25  36 VRB3      30.32F
TRENTON        PTSUNNY   51  28  41 NW6       30.34F
MILLVILLE      LGT RAIN  52  38  58 SW9       30.35F
ATLANTIC CITY  PTSUNNY   47  35  63 SE9       30.36F
WRIGHTSTOWN    PTSUNNY   52  32  47 E2        30.33F
TOMS RIVER     PTSUNNY   45  32  61 SE3       30.38F
BELMAR         PTSUNNY   45  27  49 E7        30.36F
$$

PAZ047>061-062-071-182200-
EASTERN PENNSYLVANIA

CITY           SKY/WX    TMP DP  RH WIND       PRES   REMARKS
PHILADELPHIA   PTSUNNY   55  30  38 CALM      30.36F
ALLENTOWN      PTSUNNY   53  29  39 S6        30.33F
SCRANTON       CLOUDY    53  28  38 S10G18    30.27F
$$

CTZ002-004>006-009-010-012-RIZ004-006-007-MAZ004-011-015-182200-
SOUTHERN NEW ENGLAND
 IN CT

CITY           SKY/WX    TMP DP  RH WIND       PRES   REMARKS
BRADLEY INTL   CLOUDY    48  26  42 CALM      30.34F
HARTFORD       CLOUDY    49  27  42 CALM      30.34F
DANBURY        CLOUDY    47  32  56 S7        30.33F
WTRBRY/OXFORD  SUNNY     46  30  53 S5        30.35F
BRIDGEPORT     CLOUDY    45  31  58 CALM      30.37F
MERIDEN        CLOUDY    48  30  49 S7        30.35F
NEW HAVEN      CLOUDY    45  32  60 CALM      30.36F
CHESTER        FAIR      45  32  61 SW6       30.35F
GROTON         CLOUDY    44  35  70 S6        30.35F
WILLIMANTIC    CLOUDY    50  28  42 CALM      30.33F

 IN RI

CITY           SKY/WX    TMP DP  RH WIND       PRES   REMARKS
PROVIDENCE     CLOUDY    49  29  46 NE6       30.35F
BLOCK ISLAND   CLOUDY    43  34  70 E8        30.35F
WESTERLY       CLOUDY    44  33  65 S7        30.36F

 IN MA

CITY           SKY/WX    TMP DP  RH WIND       PRES   REMARKS
BOSTON         CLOUDY    40  31  70 E10       30.38F WCI  33
WORCESTER      CLOUDY    43  27  53 E3        30.32F
WESTFIELD      CLOUDY    48  27  44 S3        30.34F
PROVINCETOWN   CLOUDY    39  37  93 MISG      30.40F
NANTUCKET      CLOUDY    44  35  70 N10       30.37F
$$

ANZ330-335-338-340-345-350-353-355-182200-
COASTAL MARINE OBSERVATIONS


STATION/POSITION TIME  SKY/WX   TEMP    WIND        PRES    VSBY  WAVE
                                AIR SEA DIR/SP/G                  HT/PER
                 (UTC)          (F)     (DEG/KT/KT) (MB)    (MI)  (FT/S)
NY HARB ENTRANCE 2100            40 44   50/  2/  4 1028.8
4S FIRE IS       2000               44                N/A           5/11
23SW MTP         2100            41 42   70/  8/  8 1027.9          6/10
HUDSON CANYON    2000            41 45   20/ 14/ 16 1028.3          8/11
EXECUTION ROCKS  2100            42 42   70/  6/  8   N/A
WESTERN LI SOUND 2100            42      50/  6/  6   N/A           1
CENTRAL LI SOUND 2000            42 42  150/  2/  2   N/A           0
EASTERN LI SOUND NOT AVBL
ROBBINS REEF     2100            41     160/  9/ 10   N/A
$$


>>>>>>>>>>>>>>>>>>>>>>>>>>>> KEY <<<<<<<<<<<<<<<<<<<<<<<<<<<
>                                                          <
>     SKY/WX - SKY CONDITION/PRESENT WEATHER               <
>     TMP    - TEMPERATURE IN FAHRENHEIT                   <
>     DP     - DEWPOINT IN FAHRENHEIT                      <
>     RH     - RELATIVE HUMIDITY IN PERCENT                <
>     WIND   - DIRECTION AND SPEED IN MPH                  <
>     PRES   - MEAN SEA LEVEL PRESSURE IN INCHES OF HG     <
>     WCI    - WIND CHILL INDEX                            <
>     VSB    - VISIBILITY IN MILES                         <
>     HX     - HEAT INDEX                                  <
>     TC     - TEMPERATURE IN CELSIUS                      <
>     VRB    - VARIABLE WIND DIRECTION                     <
>                                                          <
>>>>>>>>>>>>>>>>>>>>>>>>>>>> KEY <<<<<<<<<<<<<<<<<<<<<<<<<<<





USA.gov is the U.S. government's official web portal to all federal, state and local government web resources and services.